Regional Weather Roundup
Issued by NWS

Home | Current Version | Previous Version | Graphics & Text | Print | Product List | Glossary Off
Versions: 1 2 3 4 5 6 7 8 9 10 11 12 13 14 15 16 17 18 19 20 21 22 23 24 25 26 27 28 29 30 31 32 33 34 35 36 37 38 39 40 41 42 43 44 45 46 47 48 49 50

931
ASUS43 KMKX 281500
RWRWI

WISCONSIN REGIONAL WEATHER ROUNDUP
NATIONAL WEATHER SERVICE MILWAUKEE/SULLIVAN WI
1000 AM CDT FRI APR 28 2017

NOTE: "FAIR" INDICATES FEW OR NO CLOUDS BELOW 12,000 FEET WITH NO
SIGNIFICANT WEATHER AND/OR OBSTRUCTIONS TO VISIBILITY.

WIZ001-002-006>008-014>016-023>028-281600-
NORTHWEST WISCONSIN

CITY           SKY/WX    TMP DP  RH WIND       PRES   REMARKS
SUPERIOR ARPT  CLOUDY    35  24  65 NW15G24   29.86R WCI  25
ASHLAND        CLOUDY    34  24  67 W13       29.84R WCI  25
HAYWARD        CLOUDY    33  23  66 W7        29.87R WCI  27
SIREN          CLOUDY    34  24  65 W12       29.90R WCI  26
CUMBERLAND     CLOUDY    34  23  64 N14       29.88R WCI  24
RICE LAKE      CLOUDY    34  23  64 W10G16    29.90R WCI  26
CHETEK         CLOUDY    37  25  61 N7        29.88R WCI  32
LADYSMITH      CLOUDY    36  25  64 NW13      29.88R WCI  28
EAU CLAIRE     NOT AVBL
MENOMONIE      SUNNY     40  23  50 NW10G16   29.89R WCI  33
NEW RICHMOND   SUNNY     38  24  58 NW12      29.90R WCI  30
OSCEOLA        MOSUNNY   38  25  61 NW12      29.93S WCI  30
$$

WIZ003>005-009-010-017-018-281600-
NORTH CENTRAL WISCONSIN

CITY           SKY/WX    TMP DP  RH WIND       PRES   REMARKS
MANITOWISH WTR CLOUDY    29  21  71 W10G20    29.80R WCI  20
ARBOR VITAE    CLOUDY    32  24  74 W13G22    29.80R WCI  22
WOODRUFF       CLOUDY    32  24  74 W13G22    29.80R WCI  22
RHINELANDER    CLOUDY    32  25  75 W9        29.83R WCI  24
EAGLE RIVER    CLOUDY    31  21  66 W14G21    29.80R WCI  20
LAND O LAKES   CLOUDY    31  22  71 W9G17     29.81R WCI  23
PHILLIPS       CLOUDY    30  24  77 W8        29.82R WCI  23
TOMAHAWK       CLOUDY    32  24  71 W10G16    29.84R WCI  24
MEDFORD        CLOUDY    34  24  68 NW13      29.85R WCI  25
MERRILL        CLOUDY    33  25  71 W8        29.85R WCI  27
$$

WIZ029-030-035-036-043>047-281600-
CENTRAL WISCONSIN

CITY           SKY/WX    TMP DP  RH WIND       PRES   REMARKS
WAUSAU         CLOUDY    35  25  66 W13       29.87R WCI  26
MOSINEE        NOT AVBL
MARSHFIELD     CLOUDY    37  26  64 W12       29.88R WCI  29
STEVENS POINT  PTSUNNY   37  24  61 SW10      29.89R WCI  29
WAUPACA        MOSUNNY   42  28  57 W14       29.91R
WAUTOMA        PTSUNNY   42  29  59 W8        29.93R
WISC RAPIDS    MOSUNNY   41  27  57 NW13      29.91R
CAMP DOUGLAS   NOT AVBL
$$

WIZ011>013-019>022-031-037>040-048>050-281600-
NORTHEAST WISCONSIN

CITY           SKY/WX    TMP DP  RH WIND       PRES   REMARKS
ANTIGO         CLOUDY    32  26  76 W14       29.85R WCI  22
SHAWANO        CLOUDY    39  27  61 SW12      29.89R WCI  32
OCONTO         NOT AVBL
STURGEON BAY   CLOUDY    37  27  67 W13       29.91R WCI  29
GREEN BAY      CLOUDY    40  30  67 W10       29.92R WCI  33
MANITOWOC      NOT AVBL
APPLETON       PTSUNNY   39  25  56 SW10      29.90R WCI  32
CLINTONVILLE   PTSUNNY   37  25  60 W10       29.89R WCI  30
OSHKOSH        CLOUDY    40  30  67 SW7       29.93R
$$

WIZ032>034-041-042-053>061-281600-
SOUTHWEST WISCONSIN

CITY           SKY/WX    TMP DP  RH WIND       PRES   REMARKS
LA CROSSE      SUNNY     45  30  55 N6        29.91S
SPARTA         MOSUNNY   42  30  64 NW9       29.92R
VIROQUA        SUNNY     39  29  66 CALM      29.91R
BOSCOBEL       SUNNY     45  27  49 VRB6      29.93F
PRAIRIE DU CHI SUNNY     42  28  58 CALM      29.92F
PLATTEVILLE    MOSUNNY   41  32  71 NE7       29.92F
$$

WIZ056-057-062-063-064-067-068-281600-
SOUTH CENTRAL WISCONSIN

CITY           SKY/WX    TMP DP  RH WIND       PRES   REMARKS
REEDSBURG      NOT AVBL
BARABOO/DELLS  SUNNY     40  28  60 W7        29.92S
LONE ROCK      NOT AVBL
MINERAL POINT  SUNNY     43  32  65 N6        29.91F
MADISON        PTSUNNY   42  30  62 NW5       29.93S
MIDDLETON      SUNNY     42  31  65 N6        29.93S
WATERTOWN      SUNNY     40  33  77 W6        29.93F
MONROE         SUNNY     41  32  70 CALM      29.93S
JANESVILLE     MOSUNNY   45  34  65 CALM      29.93S
$$

WIZ051-052-058>065-066-070>072-281600-
SOUTHEAST WISCONSIN

CITY           SKY/WX    TMP DP  RH WIND       PRES   REMARKS
MILWAUKEE      MOSUNNY   47  34  60 W6        29.93F
WAUKESHA       SUNNY     43  32  65 SW3       29.94F
MILWAUKEE/TIMM SUNNY     45  30  57 W5        29.94F
RACINE         SUNNY     47  34  60 S7        29.95F
KENOSHA        CLOUDY    47  35  63 S3        29.94F
FOND DU LAC    CLOUDY    40  29  64 SW10      29.93R WCI  33
SHEBOYGAN      PTSUNNY   41  35  79 W10       29.93R
WEST BEND      MOSUNNY   41  32  70 CALM      29.92F
JUNEAU         PTSUNNY   38  31  73 CALM      29.94F
$$

LSZ147-162-281600-
LAKE SUPERIOR

STATION/POSITION TIME  TEMP    WIND        PRES    WAVE
                       AIR SEA DIR/SP/G            HT/PER
                 (UTC) (F)     (DEG/KT/KT) (MB)    (FT/S)
DEVILS ISLAND    1400   32     270/ 21/ 24 1009.9R
PORT WING        1440   34     270/ 14/ 20 1010.5S
SAXON HARBOR     1440   33     220/  7/ 11 1010.2R
$$

LMZ867-665-643>646-281600-
LAKE MICHIGAN

STATION/POSITION TIME  TEMP    WIND        PRES    WAVE
                       AIR SEA DIR/SP/G            HT/PER
                 (UTC) (F)     (DEG/KT/KT) (MB)    (FT/S)
CHAMBERS ISLAND  1440   36     230/  7/ 12 1011.5R
N MID LAKE BUOY  1350   35 37  240/ 16/ 19 1012.3R   3/ 4
NORTHPORT PIER   1440   36     270/  7/ 12 1011.9R
SISTER BAY       1336   36     300/ 17/ 20   N/A
KEWAUNEE LAKESHO 1430   38     220/  6/ 12 1012.4R
SHEBOYGAN LAKESH 1400   39     240/  6/  9 1013.7R
PORT WASHINGTON  1430   45     170/  5/  9 1014.9R
MILWAUKEE LAKESH 1430   42     160/  4/  5   N/A
S MID LAKE BUOY  1350   42 41  250/  6/  6 1015.1R   1/ 4
KENOSHA   LAKESH 1400   44     140/  6/  8 1014.6
$$

TC  - TEMPERATURE IN CELSIUS
VSB - VISIBILITY IN STATUTE MILES
WCI - WIND CHILL INDEX
HX  - HEAT INDEX





USA.gov is the U.S. government's official web portal to all federal, state and local government web resources and services.